[[{"header":{"parameterUnit":"m.s-1","parameterCategory":1,"la1":30.2991,"la2":30.254,"lo1":-89.0895,"lo2":-89.0444,"dy":0.0017,"dx":0.0017,"nx":28,"ny":28,"refTime":"2025-11-22T03:00:00:Z","depth":0,"parameterNumber":2,"parameterNumberName":"U-component_of_WINDS"},"data":[0,0,0,0,0,0,0,0,0,0,0,0,0,0,0,0,0,0,0,0,0,0,0,0,0,0,0,0,0,0,0,0,0,0,0,0,0,0,0,0,0,0,0,0,0,0,0,0,0,0,0,0,0,0,0,0,0,0,2.066,2.0661,0,2.0822,2.0824,2.0826,2.087,2.0869,2.0868,2.0867,2.1034,2.1039,2.1045,0,0,0,0,0,0,0,0,0,0,0,0,0,2.0388,2.0393,2.0659,2.0661,2.0663,2.0822,2.0824,2.0826,2.087,2.0869,2.0867,2.0866,2.1032,2.1039,2.1045,0,0,0,0,0,0,0,0,0,0,0,0,0,2.0524,2.0394,2.0659,2.0704,2.071,2.0822,2.0824,2.0827,2.087,2.0869,2.0867,2.0866,2.103,2.1038,2.1046,2.1125,0,0,2.107,2.1074,0,0,0,0,0,0,0,0,2.0516,2.0534,2.0696,2.0701,2.0708,2.0824,2.079,2.0927,2.087,2.0809,2.0867,2.0865,2.0965,2.0979,2.1012,2.1132,2.114,2.1071,2.1076,2.108,2.1082,0,0,0,0,0,0,0,2.0507,2.0527,2.0724,2.0698,2.0705,2.0717,2.0735,2.0816,2.0893,2.0814,2.0818,2.0837,2.0969,2.1005,2.1017,2.1142,2.1071,2.1078,2.1083,2.1086,2.1337,2.1339,0,0,0,0,0,0,2.0489,2.0519,2.0719,2.0729,2.0606,2.0723,2.0743,2.0788,2.0893,2.0907,2.0838,2.0838,2.0992,2.1007,2.1023,2.1123,2.1079,2.1087,2.1092,2.1335,2.1338,2.134,0,0,0,0,0,0,2.0483,2.0507,2.0712,2.0625,2.0652,2.0729,2.078,2.0792,2.0828,2.091,2.0924,2.086,2.0991,2.1011,2.1099,2.1129,2.1091,2.1098,2.1333,2.1336,2.1339,2.1322,0,0,0,0,0,0,2.0475,2.0504,2.0534,2.0625,2.0656,2.0785,2.0782,2.0796,2.0842,2.0844,2.0935,2.0949,2.0991,2.1087,2.1107,2.1139,2.1104,2.1331,2.1334,2.1338,2.132,2.1324,2.1327,0,0,0,0,0,2.0465,2.0523,2.0535,2.0559,2.0695,2.0787,2.0805,2.0852,2.0844,2.0875,2.0929,2.0946,2.1123,2.1096,2.1119,2.1154,2.1329,2.1333,2.1337,2.1319,2.1323,2.1327,0,0,0,0,0,0,2.0432,2.0535,2.0551,2.0639,2.0704,2.0794,2.0834,2.0855,2.0924,2.0923,2.0979,2.1,2.1084,2.1128,2.1096,2.1237,2.1226,2.1235,2.1204,2.1209,2.1213,2.12,2.1111,0,0,0,0,0,2.0436,2.0501,2.0587,2.0657,2.0689,2.0756,2.0798,2.0829,2.0899,2.0926,2.0986,2.1053,2.1124,2.1169,2.1239,2.1328,2.1349,2.1364,2.1367,2.1369,2.1376,2.1428,2.1436,2.1353,2.1353,2.1353,0,0,2.0442,2.0507,2.0544,2.0652,2.0706,2.0773,2.0779,2.0849,2.0899,2.0937,2.1023,2.107,2.1149,2.1238,2.128,2.1277,2.1404,2.1375,2.1376,2.1381,2.1433,2.1441,2.1447,2.1356,2.1356,2.1355,0,0,2.0489,2.0544,2.0608,2.0663,2.0745,2.079,2.0805,2.0893,2.0925,2.1013,2.1044,2.1105,2.1226,2.1281,2.1325,2.1396,2.1415,2.1417,2.1434,2.1484,2.1491,2.1497,2.1523,2.1531,2.1424,2.1424,2.1424,0,2.0486,2.0588,2.0639,2.0708,2.0755,2.0794,2.086,2.0911,2.1011,2.1043,2.1039,2.1192,2.1248,2.1351,2.1369,2.1403,2.1424,2.1406,2.1486,2.1492,2.1499,2.1524,2.1533,2.1424,2.1424,2.1424,2.1424,0,2.0582,2.0652,2.0695,2.0791,2.0843,2.0911,2.0973,2.102,2.1048,2.1093,2.1184,2.1253,2.1338,2.1365,2.1392,2.1473,2.1469,2.1474,2.1465,2.1505,2.153,2.154,2.1423,2.1424,2.1424,2.1424,0,0,2.0609,2.0735,2.075,2.0795,2.089,2.0945,2.1016,2.1099,2.1139,2.1208,2.1269,2.1371,2.1378,2.1428,2.1463,2.1506,2.1559,2.1507,2.151,2.1514,2.1653,2.1648,2.1658,2.1573,2.1575,2.1577,2.1647,0,2.0667,2.0793,2.0842,2.0945,2.1012,2.1051,2.1112,2.1178,2.1223,2.1287,2.1337,2.1409,2.1412,2.1443,2.1488,2.1543,2.1588,2.1539,2.1631,2.1633,2.1609,2.1671,2.1665,2.1727,2.1657,2.1658,2.166,0,2.075,2.0821,2.0931,2.1019,2.1049,2.1103,2.1185,2.1245,2.1321,2.1351,2.1408,2.1441,2.1518,2.1505,2.1612,2.1577,2.1618,2.1651,2.1655,2.1665,2.1648,2.1682,2.1749,2.1758,2.1675,2.1674,2.1673,0,2.0759,2.0882,2.0964,2.1001,2.1107,2.1144,2.119,2.1265,2.1312,2.1384,2.1416,2.1496,2.154,2.1601,2.1655,2.1641,2.1758,2.1749,2.1786,2.1784,2.1807,2.1805,2.1881,2.1835,2.1835,2.1834,2.1834,0,2.0818,2.0884,2.097,2.102,2.1095,2.1152,2.1226,2.1274,2.1341,2.1402,2.1441,2.1498,2.1566,2.1632,2.1675,2.1758,2.1778,2.1805,2.1815,2.1801,2.1797,2.1827,2.1824,2.1837,2.1836,2.1836,2.1835,0,2.084,2.09,2.0992,2.1085,2.111,2.1162,2.1242,2.1293,2.1341,2.1418,2.144,2.1516,2.1596,2.1656,2.176,2.1789,2.1877,2.1889,2.1851,2.1856,2.189,2.1885,2.1987,2.2004,2.1946,2.1947,2.1947,0,2.0873,2.0924,2.1024,2.1068,2.1113,2.1183,2.1233,2.1292,2.1342,2.1434,2.1475,2.1558,2.1627,2.1753,2.1818,2.1899,2.1912,2.1942,2.1924,2.1909,2.1913,2.1908,2.1914,2.1944,2.1944,2.1945,2.1945,0,2.0925,2.0953,2.1022,2.1103,2.1161,2.1228,2.1295,2.1329,2.1401,2.1456,2.1538,2.1592,2.1699,2.1781,2.1869,2.1917,2.1943,2.195,2.1963,2.1948,2.1924,2.1938,2.1857,2.1947,2.1947,2.1947,2.1947,2.1947,2.0953,2.1001,2.1079,2.1156,2.1214,2.1276,2.1329,2.1385,2.1455,2.1546,2.1578,2.1663,2.1741,2.1861,2.1911,2.1979,2.1979,2.1998,2.2002,2.2006,2.2004,2.1915,2.1995,2.1995,2.1995,2.1995,2.1995,0,2.1007,2.106,2.113,2.1224,2.1285,2.1305,2.1382,2.1431,2.1506,2.1576,2.1644,2.174,2.1821,2.1893,2.1978,2.2019,2.2034,2.2039,2.2036,2.2047,2.1999,2.198,2.2026,2.2026,2.2026,2.2026,2.2026,2.2026,2.1042,2.1125,2.1163,2.1276,2.1329,2.1412,2.1454,2.1513,2.157,2.1675,2.1742,2.1789,2.1861,2.1952,2.2028,2.2047,2.2076,2.2079,2.2101,2.2055,2.2051,2.2047,2.2029,2.2085,2.2085,2.2144,2.2144,2.2145]},{"header":{"parameterUnit":"m.s-1","parameterCategory":1,"la1":30.2991,"la2":30.254,"lo1":-89.0895,"lo2":-89.0444,"dy":0.0017,"dx":0.0017,"nx":28,"ny":28,"refTime":"2025-11-22T03:00:00:Z","depth":0,"parameterNumber":3,"parameterNumberName":"V-component_of_WINDS"},"data":[0,0,0,0,0,0,0,0,0,0,0,0,0,0,0,0,0,0,0,0,0,0,0,0,0,0,0,0,0,0,0,0,0,0,0,0,0,0,0,0,0,0,0,0,0,0,0,0,0,0,0,0,0,0,0,0,0,0,2.1026,2.1026,0,2.0971,2.0971,2.097,2.0914,2.0914,2.0913,2.0912,2.0853,2.0852,2.0852,0,0,0,0,0,0,0,0,0,0,0,0,0,2.1079,2.1079,2.1026,2.1025,2.1025,2.0972,2.0971,2.097,2.0914,2.0914,2.0913,2.0912,2.0854,2.0853,2.0852,0,0,0,0,0,0,0,0,0,0,0,0,0,2.1044,2.1078,2.1026,2.0991,2.0987,2.0972,2.0971,2.097,2.0915,2.0913,2.0912,2.0911,2.0854,2.0853,2.0851,2.0866,0,0,2.0847,2.0847,0,0,0,0,0,0,0,0,2.1046,2.1042,2.0997,2.0993,2.0989,2.0949,2.0968,2.0935,2.0915,2.0942,2.0912,2.0911,2.0886,2.0882,2.0874,2.0863,2.0861,2.0847,2.0847,2.0846,2.0846,0,0,0,0,0,0,0,2.1048,2.1044,2.1004,2.0996,2.0991,2.0976,2.097,2.0961,2.0921,2.094,2.0935,2.093,2.0883,2.0875,2.0872,2.086,2.0847,2.0846,2.0845,2.0845,2.0857,2.0858,0,0,0,0,0,0,2.1056,2.1046,2.1006,2.1003,2.1015,2.0976,2.0969,2.0963,2.0921,2.0913,2.0931,2.0927,2.0878,2.0874,2.087,2.0884,2.0846,2.0845,2.0844,2.0856,2.0858,2.0859,0,0,0,0,0,0,2.1058,2.1053,2.1008,2.1023,2.1016,2.0977,2.097,2.0962,2.0954,2.0914,2.0906,2.093,2.0877,2.0872,2.0867,2.0881,2.0844,2.0843,2.0855,2.0857,2.0858,2.0913,0,0,0,0,0,0,2.106,2.1054,2.106,2.1024,2.1016,2.1008,2.097,2.0962,2.0952,2.0947,2.0912,2.0905,2.0876,2.087,2.0866,2.0879,2.0842,2.0854,2.0856,2.0858,2.091,2.0916,2.0922,0,0,0,0,0,2.1062,2.1077,2.1061,2.1056,2.1023,2.1009,2.1004,2.0972,2.0954,2.0959,2.0933,2.0906,2.088,2.087,2.0865,2.0878,2.0853,2.0855,2.0858,2.0907,2.0915,2.0922,0,0,0,0,0,0,2.1116,2.1072,2.1053,2.1058,2.1038,2.1,2.1006,2.0981,2.0965,2.0961,2.092,2.0912,2.0913,2.0894,2.0884,2.0889,2.0862,2.0864,2.0902,2.0909,2.0915,2.092,2.0841,0,0,0,0,0,2.1129,2.1122,2.1084,2.1091,2.1082,2.1046,2.1039,2.1015,2.0992,2.0983,2.0957,2.0935,2.0922,2.0914,2.09,2.0906,2.0897,2.0913,2.0919,2.0924,2.0926,2.0928,2.0934,2.0867,2.0867,2.0867,0,0,2.1154,2.113,2.1128,2.1102,2.1083,2.1077,2.1039,2.1034,2.1028,2.0982,2.0977,2.0957,2.0929,2.0931,2.093,2.0915,2.0942,2.0927,2.0931,2.0931,2.0931,2.0938,2.0943,2.0869,2.0868,2.0868,0,0,2.1198,2.1179,2.1183,2.1166,2.1139,2.1114,2.1115,2.108,2.1066,2.106,2.1025,2.1017,2.0995,2.0977,2.0965,2.1001,2.0975,2.0997,2.1029,2.1031,2.1037,2.1041,2.1054,2.106,2.0999,2.0999,2.0999,0,2.1234,2.1224,2.1188,2.1185,2.1175,2.1133,2.1137,2.1121,2.109,2.1083,2.1067,2.1039,2.1017,2.1014,2.1022,2.1014,2.1013,2.1002,2.1039,2.1043,2.1047,2.1059,2.1064,2.1002,2.1002,2.1002,2.1001,0,2.1269,2.1262,2.1268,2.1241,2.123,2.1231,2.1195,2.1188,2.1165,2.1142,2.1136,2.1108,2.1088,2.1085,2.1062,2.1077,2.1069,2.1047,2.1019,2.1057,2.1067,2.1072,2.1006,2.1005,2.1005,2.1004,0,0,2.1347,2.1299,2.1302,2.1289,2.1255,2.1249,2.1246,2.1227,2.1222,2.1202,2.1199,2.1181,2.116,2.1146,2.112,2.1122,2.1152,2.1099,2.1098,2.111,2.1168,2.1186,2.1192,2.1134,2.1135,2.1136,2.117,0,2.1385,2.138,2.1348,2.1352,2.1345,2.1305,2.1302,2.1281,2.1259,2.1248,2.1223,2.1211,2.1184,2.1176,2.1175,2.1149,2.1163,2.1146,2.113,2.113,2.114,2.1197,2.1217,2.1251,2.1174,2.1175,2.1175,0,2.143,2.1414,2.1418,2.1384,2.1379,2.1378,2.1358,2.1349,2.1323,2.1306,2.1291,2.1262,2.1256,2.1229,2.122,2.1209,2.12,2.1186,2.1186,2.1185,2.1156,2.1198,2.1261,2.1267,2.1181,2.1181,2.118,0,2.1488,2.1466,2.1465,2.1455,2.1415,2.1416,2.1399,2.1372,2.1362,2.1343,2.1336,2.1317,2.1306,2.1291,2.1257,2.1241,2.1252,2.1222,2.1238,2.1239,2.1243,2.1243,2.1307,2.1236,2.1236,2.1236,2.1235,0,2.1535,2.1539,2.1491,2.1491,2.1493,2.1455,2.1459,2.1438,2.1414,2.1408,2.1371,2.1366,2.1321,2.131,2.1283,2.128,2.1275,2.1261,2.1254,2.1265,2.1267,2.126,2.1257,2.1237,2.1237,2.1236,2.1236,0,2.1601,2.1568,2.1565,2.1528,2.1518,2.1522,2.1489,2.1487,2.1462,2.1455,2.1451,2.1411,2.1397,2.1361,2.1337,2.1319,2.1322,2.1309,2.1332,2.1328,2.1345,2.1345,2.1407,2.1413,2.1338,2.1339,2.1339,0,2.1634,2.1636,2.1599,2.1593,2.1578,2.1568,2.1558,2.152,2.1511,2.1481,2.1482,2.1465,2.1449,2.1428,2.1396,2.1377,2.1363,2.1386,2.136,2.1371,2.1365,2.1366,2.1365,2.1393,2.1394,2.1395,2.1395,0,2.1696,2.168,2.1667,2.1649,2.1639,2.1622,2.1604,2.16,2.1557,2.1548,2.1534,2.1522,2.1497,2.148,2.1456,2.1437,2.1409,2.1404,2.1406,2.1418,2.1432,2.1426,2.1349,2.1403,2.1402,2.1401,2.1401,2.1401,2.1746,2.1746,2.1721,2.1708,2.169,2.1673,2.1669,2.1644,2.1631,2.161,2.1587,2.1575,2.1547,2.1512,2.1495,2.1484,2.147,2.1473,2.1474,2.1476,2.1482,2.1433,2.1479,2.1479,2.1479,2.1479,2.1478,0,2.1807,2.1789,2.1777,2.1753,2.1743,2.1717,2.1695,2.1688,2.1678,2.1655,2.1641,2.1624,2.1607,2.1574,2.1554,2.1551,2.1537,2.1547,2.1547,2.1544,2.1495,2.1495,2.1558,2.1558,2.1558,2.1558,2.1558,2.1558,2.1838,2.1837,2.1818,2.1807,2.1787,2.1776,2.1766,2.175,2.1732,2.1715,2.1701,2.168,2.1652,2.163,2.1613,2.1603,2.1598,2.1612,2.1599,2.1554,2.1547,2.154,2.154,2.1611,2.1611,2.1648,2.1648,2.1648]}]]